星链-4059 (STARLINK-4059 )

导读 | 星芒AI

STARLINK-4059 是 SpaceX Starlink 项目中的一颗低轨通信卫星,属于第 5 批(Group 5)部署的星链卫星之一。该卫星于 2023 年发射,运行在约 550 公里的轨道高度,旨在为全球用户提供高速互联网服务。作为 Starlink 卫星群的一部分,STARLINK-4059 采用先进的相控阵天线和激光通信技术,以提升网络连接的稳定性和效率。该卫星的部署有助于扩大 Starlink 在全球范围内的覆盖能力,特别是在偏远和网络基础设施薄弱的地区。

基本信息
目录编号:
53250
目录名称:
STARLINK-4059
国际标识:
2022-086J
轨道中心:
EARTH
卫星名称:
星链-4059
卫星全名:
星链-4059 (STARLINK-4059 )
卫星状态:
在轨 (已飞行1246 天)
发射日期:
2022-07-24 UTC
国别 :
美国 (US)
星等 :
--
轨道信息
数据来源 国际轨道数据 AOE轨道数据
星历时间 2025-12-21T03:42:47+0800
9小时前
查看轨道信息
2025-12-20T10:00:00+0800
1天前
查看轨道信息
半长轴 6917.881km 6917.78km
偏心率 0.0001458 0.000177
轨道倾角 53.215° 53.216°
近地点辐角 88.487° 75.707°
升交点赤经 188.173° 191.491°
平近点角 271.629° 233.296°
近地点 538.735km 538.418km
远地点 540.753km 540.868km
周期 95.438分钟 95.435分钟
每日圈数 15.088401 15.088731
详细信息
固有亮度:
5
最大亮度:
2.5
卫星平台:
Starlink v1.5
覆盖范围:
全球
运营商:
太空探索技术公司
运营商所在国:
美国
制造商(研发单位):
太空探索技术公司
制造商所在国:
美国
使用方式:
暂无
卫星简介
星链(Starlink)计划是由太空探索技术公司(SpaceX)提出的一个巨型低轨卫星互联网星座项目,计划在2019年至2024年间在太空搭建由约1.2万颗卫星组成的“星链”网络,其中1584颗将部署在地球上空550千米处的近地轨道,并从2020年开始工作。该卫星仍在工作。
2D轨道图
3D轨道图
轨道高度分析图
轨道倾角分析图
轨道综合分析图
查看轨道综合分析图